Location: Lombard
(41.8800°N, 88.0080°W)
Time: 23:11:37
(UTC-05:00)

Tiros 1 - Pass Details

Date: 31 January 2023
Orbit: 628 x 662 km, 48.4° (Epoch: 20 March)

Event Time Altitude Azimuth Distance (km) Brightness Sun altitude
Rises 06:37:58 0° 297° (WNW) 2,945 - -5.7°
Exits shadow 06:39:28 - 298° (WNW) 2,355 9.4 -5.4°
Reaches altitude 10° 06:40:17 10° 298° (WNW) 2,039 9.1 -5.3°
Maximum altitude 06:45:00 90° 214° (SW) 653 7.2 -4.4°
Drops below altitude 10° 06:49:45 10° 119° (ESE) 2,054 11.6 -3.6°
Sets 06:52:06 0° 120° (ESE) 2,968 13.0 -3.2°
